Weather History for Bentonville, AR

Change the Weather History Date:

Wednesday, December 7, 2011

  Actual Average Record
Temperature  
Mean Temperature 29 °F -  
Max Temperature 39 °F 48 °F 75 °F (1966)
Min Temperature 19 °F 29 °F 5 °F (2013)
Degree Days  
Heating Degree Days 36    
Moisture  
Dew Point 18 °F    
Average Humidity 65    
Maximum Humidity 93    
Minimum Humidity 39    
Precipitation  
Precipitation 0.00 in - - ()
Sea Level Pressure  
Sea Level Pressure 30.21 in    
Wind  
Wind Speed 5 mph (WSW)    
Max Wind Speed 14 mph    
Max Gust Speed 16 mph    
Visibility 10 miles    
Events      
Averages and records for this station are not official NWS values.
T = Trace of Precipitation, MM = Missing Value Source: NWS Daily Summary

Daily Weather History Graph

Daily Weather History Graph

Search for Another Location

Airport:

Trip Planner

Search our weather history database for the weather conditions in past years. The results will help you decide how hot, cold, wet, or windy it might be!

Date:

Astronomy

Dec. 07, 2011 Rise Set
Actual Time 7:14 AM CST 5:01 PM CST
Civil Twilight 6:46 AM CST 5:30 PM CST
Nautical Twilight 6:14 AM CST 6:02 PM CST
Astronomical Twilight 5:43 AM CST 6:33 PM CST
Moon 3:01 PM CST (12/7) 4:33 AM CST (12/7)
Length of Visible Light 10h 43m
Length of Day
9h 46m
Waxing Gibbous, 92% of the Moon is Illuminated
Dec 7
Waxing Gibbous
Dec 10
Full
Dec 17
Last Quarter
Dec 24
New
Jan 1
First Quarter

Hourly Weather History & Observations

Time (CST) Temp. Windchill Dew Point Humidity Pressure Visibility Wind Dir Wind Speed Gust Speed Precip Events Conditions
12:15 AM 26.6 °F 17.5 °F 19.4 °F 74% 30.20 in 10.0 mi NW 9.2 mph - N/A   Overcast
12:35 AM 26.6 °F 20.0 °F 19.4 °F 74% 30.20 in 10.0 mi NNW 5.8 mph - N/A   Overcast
12:55 AM 28.4 °F 21.2 °F 19.4 °F 69% 30.19 in 10.0 mi NNW 6.9 mph - N/A   Overcast
1:15 AM 28.4 °F 24.6 °F 19.4 °F 69% 30.18 in 10.0 mi NNW 3.5 mph - N/A   Overcast
1:35 AM 28.4 °F 19.7 °F 19.4 °F 69% 30.19 in 10.0 mi WNW 9.2 mph - N/A   Overcast
2:15 AM 26.6 °F 20.0 °F 19.4 °F 74% 30.19 in 10.0 mi NW 5.8 mph - N/A   Overcast
2:35 AM 26.6 °F 21.2 °F 17.6 °F 69% 30.19 in 10.0 mi WNW 4.6 mph - N/A   Mostly Cloudy
2:55 AM 24.8 °F 19.1 °F 19.4 °F 80% 30.19 in 10.0 mi WNW 4.6 mph - N/A   Clear
3:35 AM 23.0 °F 18.4 °F 17.6 °F 80% 30.19 in 10.0 mi WNW 3.5 mph - N/A   Clear
3:55 AM 23.0 °F 17.0 °F 17.6 °F 80% 30.19 in 10.0 mi WNW 4.6 mph - N/A   Clear
4:15 AM 23.0 °F 15.8 °F 17.6 °F 80% 30.20 in 10.0 mi WNW 5.8 mph - N/A   Clear
4:35 AM 21.2 °F 14.9 °F 17.6 °F 86% 30.20 in 10.0 mi WNW 4.6 mph - N/A   Clear
4:55 AM 21.2 °F 14.9 °F 17.6 °F 86% 30.21 in 10.0 mi WNW 4.6 mph - N/A   Clear
5:15 AM 21.2 °F 14.9 °F 17.6 °F 86% 30.22 in 10.0 mi WNW 4.6 mph - N/A   Clear
5:35 AM 21.2 °F - 15.8 °F 80% 30.22 in 10.0 mi Calm Calm - N/A   Clear
5:55 AM 21.2 °F 16.4 °F 17.6 °F 86% 30.23 in 10.0 mi WNW 3.5 mph - N/A   Clear
6:15 AM 21.2 °F - 17.6 °F 86% 30.23 in 10.0 mi Calm Calm - N/A   Clear
6:35 AM 19.4 °F - 17.6 °F 93% 30.23 in 10.0 mi Calm Calm - N/A   Clear
7:15 AM 19.4 °F - 17.6 °F 93% 30.23 in 7.0 mi Calm Calm - N/A   Clear
7:55 AM 21.2 °F - 17.6 °F 86% 30.23 in 7.0 mi Calm Calm - N/A   Clear
8:15 AM 21.2 °F - 17.6 °F 86% 30.22 in 7.0 mi Calm Calm - N/A   Clear
8:35 AM 21.2 °F 16.4 °F 17.6 °F 86% 30.23 in 8.0 mi West 3.5 mph - N/A   Clear
8:55 AM 24.8 °F 20.5 °F 17.6 °F 74% 30.23 in 10.0 mi SW 3.5 mph - N/A   Clear
9:15 AM 24.8 °F 19.1 °F 17.6 °F 74% 30.23 in 10.0 mi WSW 4.6 mph - N/A   Clear
9:35 AM 26.6 °F 22.6 °F 15.8 °F 64% 30.23 in 10.0 mi WSW 3.5 mph - N/A   Clear
9:55 AM 26.6 °F 22.6 °F 17.6 °F 69% 30.24 in 10.0 mi West 3.5 mph - N/A   Clear
10:35 AM 30.2 °F 25.4 °F 17.6 °F 60% 30.24 in 10.0 mi SSW 4.6 mph - N/A   Clear
10:55 AM 30.2 °F 25.4 °F 17.6 °F 60% 30.23 in 10.0 mi WSW 4.6 mph - N/A   Clear
11:15 AM 30.2 °F 25.4 °F 17.6 °F 60% 30.24 in 10.0 mi SW 4.6 mph - N/A   Clear
11:35 AM 33.8 °F 29.6 °F 17.6 °F 52% 30.23 in 10.0 mi West 4.6 mph - N/A   Clear
11:55 AM 33.8 °F 30.8 °F 17.6 °F 52% 30.23 in 10.0 mi WSW 3.5 mph - N/A   Clear
12:35 PM 35.6 °F 28.6 °F 17.6 °F 48% 30.22 in 10.0 mi WSW 9.2 mph - N/A   Clear
12:55 PM 35.6 °F 29.9 °F 17.6 °F 48% 30.22 in 10.0 mi WSW 6.9 mph - N/A   Clear
1:15 PM 35.6 °F 29.2 °F 17.6 °F 48% 30.22 in 10.0 mi West 8.1 mph - N/A   Clear
1:35 PM 37.4 °F 30.3 °F 15.8 °F 41% 30.21 in 10.0 mi West 10.4 mph 16.1 mph N/A   Clear
1:55 PM 37.4 °F 29.3 °F 17.6 °F 45% 30.20 in 10.0 mi WSW 12.7 mph 16.1 mph N/A   Clear
2:15 PM 37.4 °F 28.9 °F 15.8 °F 41% 30.20 in 10.0 mi WSW 13.8 mph - N/A   Clear
2:35 PM 37.4 °F 30.3 °F 15.8 °F 41% 30.20 in 10.0 mi West 10.4 mph - N/A   Clear
2:55 PM 37.4 °F 31.4 °F 15.8 °F 41% 30.20 in 10.0 mi WSW 8.1 mph - N/A   Clear
3:15 PM 39.2 °F 33.0 °F 15.8 °F 39% 30.19 in 10.0 mi West 9.2 mph - N/A   Clear
3:55 PM 37.4 °F 30.8 °F 15.8 °F 41% 30.20 in 10.0 mi WSW 9.2 mph - N/A   Clear
4:15 PM 37.4 °F 30.3 °F 15.8 °F 41% 30.20 in 10.0 mi WSW 10.4 mph - N/A   Clear
4:35 PM 37.4 °F 32.1 °F 15.8 °F 41% 30.20 in 10.0 mi West 6.9 mph - N/A   Clear
4:55 PM 35.6 °F 30.7 °F 17.6 °F 48% 30.20 in 10.0 mi WSW 5.8 mph - N/A   Clear
5:15 PM 33.8 °F 29.6 °F 17.6 °F 52% 30.20 in 10.0 mi SW 4.6 mph - N/A   Clear
6:15 PM 32.0 °F 27.5 °F 17.6 °F 55% 30.21 in 10.0 mi SW 4.6 mph - N/A   Clear
7:15 PM 32.0 °F 27.5 °F 17.6 °F 55% 30.22 in 10.0 mi SSW 4.6 mph - N/A   Clear
7:35 PM 30.2 °F 24.3 °F 17.6 °F 60% 30.21 in 10.0 mi SSW 5.8 mph - N/A   Clear
7:55 PM 30.2 °F 24.3 °F 19.4 °F 64% 30.22 in 10.0 mi SSW 5.8 mph - N/A   Clear
8:15 PM 30.2 °F 24.3 °F 19.4 °F 64% 30.22 in 10.0 mi SSW 5.8 mph - N/A   Clear
8:35 PM 30.2 °F 25.4 °F 17.6 °F 60% 30.21 in 10.0 mi SSW 4.6 mph - N/A   Clear
8:55 PM 30.2 °F 26.7 °F 17.6 °F 60% 30.22 in 10.0 mi SW 3.5 mph - N/A   Clear
9:15 PM 28.4 °F 24.6 °F 19.4 °F 69% 30.22 in 10.0 mi SSW 3.5 mph - N/A   Clear
9:35 PM 28.4 °F 24.6 °F 17.6 °F 64% 30.21 in 10.0 mi South 3.5 mph - N/A   Clear
9:55 PM 28.4 °F 24.6 °F 17.6 °F 64% 30.22 in 10.0 mi South 3.5 mph - N/A   Clear
10:15 PM 28.4 °F - 17.6 °F 64% 30.22 in 10.0 mi Calm Calm - N/A   Clear
10:35 PM 28.4 °F - 17.6 °F 64% 30.22 in 10.0 mi Calm Calm - N/A   Clear
10:55 PM 26.6 °F 22.6 °F 17.6 °F 69% 30.21 in 10.0 mi SSE 3.5 mph - N/A   Clear
11:15 PM 26.6 °F 22.6 °F 17.6 °F 69% 30.21 in 10.0 mi South 3.5 mph - N/A   Clear
11:35 PM 26.6 °F 21.2 °F 19.4 °F 74% 30.22 in 10.0 mi SSW 4.6 mph - N/A   Clear
11:55 PM 28.4 °F 24.6 °F 19.4 °F 69% 30.21 in 10.0 mi South 3.5 mph - N/A   Clear